Regional Weather Roundup
Issued by NWS

Home | Current Version | Previous Version | Graphics & Text | Print | Product List | Glossary On
Versions: 1 2 3 4 5 6 7 8 9 10 11 12 13 14 15 16 17 18 19 20 21 22 23 24 25 26 27 28 29 30 31 32 33 34 35 36 37 38 39 40 41 42 43 44 45 46 47 48 49 50
283
ASUS44 KLIX 210601
RWRLA
LOUISIANA WEATHER ROUNDUP
NATIONAL WEATHER SERVICE NEW ORLEANS LA
100 AM CDT SUN SEP 21 2014

NOTE: "FAIR" INDICATES FEW OR NO CLOUDS BELOW 12,000 FEET WITH NO
      SIGNIFICANT WEATHER AND/OR OBSTRUCTIONS TO VISIBILITY.
      SKY/WX - SKY CONDITION AND SIGNIFICANT WEATHER.
      TMP - AIR TEMPERATURE.    DP   - DEWPOINT TEMPERATURE.
      RH  - RELATIVE HUMIDITY.  PRES - PRESSURE.
      HX  - HEAT INDEX.         WCI  - WIND CHILL INDEX.

*  THESE STATIONS ARE NOT NWS OR FAA STATIONS AND ARE NOT UNDER
   NWS QUALITY CONTROL.

LAZ040-048-061>063-065-066-069-210700-
SOUTHEAST LOUISIANA

CITY           SKY/WX    TMP DP  RH WIND       PRES   REMARKS
N.O. AUDUBON     N/A     79  73  80 MISG        N/A
6HR MIN TEMP:  78; 6HR MAX TEMP:  83;

N.O. INTL ARPT CLEAR     78  68  71 NE5       29.97F
6HR MIN TEMP:  78; 6HR MAX TEMP:  83;

N.O. LAKEFRONT CLEAR     79  70  74 E9        29.98S
6HR MIN TEMP:  79; 6HR MAX TEMP:  82;

N.O. DOWNTOWN* FAIR      79  66  65 CALM      29.97F
6HR MIN TEMP:  79; 6HR MAX TEMP:  82;

SLIDELL        CLEAR     70  67  90 N5        29.98S
6HR MIN TEMP:  70; 6HR MAX TEMP:  81;

BATON ROUGE    CLEAR     71  69  93 NE3       29.99S
6HR MIN TEMP:  71; 6HR MAX TEMP:  81;

BOOTHVILLE     CLEAR     79  72  79 E6        29.95F
6HR MIN TEMP:  79; 6HR MAX TEMP:  81;

BELLE CHASSE   CLEAR     73  69  87 NE3       29.96F
6HR MIN TEMP:  73; 6HR MAX TEMP:  81;

BOGALUSA*        N/A     69  65  88 N5        30.02S
6HR MIN TEMP:  69; 6HR MAX TEMP:  82;

GALLIANO*      NOT AVBL
NEW ROADS*     FAIR      71  71  98 CALM      29.99S FOG
6HR MIN TEMP:  71; 6HR MAX TEMP:  82;

GONZALES*      FAIR      71  71 100 CALM      29.98S FOG
6HR MIN TEMP:  71; 6HR MAX TEMP:  78;

HAMMOND*       NOT AVBL
HOUMA*         CLEAR     71  67  85 CALM      29.96F FOG
6HR MIN TEMP:  71; 6HR MAX TEMP:  80;

PORT FOURCHON* PTCLDY    81  70  69 E12       29.98S

$$

LAZ041-044-053-054-210700-
SOUTHWEST LOUISIANA

CITY           SKY/WX    TMP DP  RH WIND       PRES   REMARKS
LAKE CHARLES   CLEAR     72  69  90 CALM      29.97S
6HR MIN TEMP:  72; 6HR MAX TEMP:  84;

LAFAYETTE      CLEAR     74  71  91 CALM      29.98S
6HR MIN TEMP:  73; 6HR MAX TEMP:  82;

PATTERSON      CLEAR     72  70  94 E3        29.99F
6HR MIN TEMP:  72; 6HR MAX TEMP:  81;

SALT POINT       N/A     76  72  87 CALM      29.96F
6HR MIN TEMP:  76; 6HR MAX TEMP:  84;

NEW IBERIA     CLEAR     74  69  85 E6        29.98S
6HR MIN TEMP:  73; 6HR MAX TEMP:  83;

CHENAULT AIRPK CLEAR     73  70  89 CALM      29.98S
6HR MIN TEMP:  72; 6HR MAX TEMP:  83;


$$

LAZ027-028-210700-
CENTRAL LOUISIANA

CITY           SKY/WX    TMP DP  RH WIND       PRES   REMARKS
FORT POLK      CLEAR     70  68  93 CALM      29.99F
6HR MIN TEMP:  70; 6HR MAX TEMP:  83;

ALEXANDRIA INT CLEAR     69  68  96 CALM      29.98S FOG
6HR MIN TEMP:  69; 6HR MAX TEMP:  82;

ALEXANDRIA     CLEAR     70  68  93 CALM      30.00S
6HR MIN TEMP:  70; 6HR MAX TEMP:  80;


$$

LAZ001-002-210700-
NORTHWEST LOUISIANA

CITY           SKY/WX    TMP DP  RH WIND       PRES   REMARKS
SHREVEPORT     CLEAR     73  66  78 CALM      30.00S
6HR MIN TEMP:  73; 6HR MAX TEMP:  86;

BARKSDALE AFB  CLEAR     72  68  87 CALM      30.00F
6HR MIN TEMP:  71; 6HR MAX TEMP:  85;

DTN SHREVEPORT CLEAR     74  68  81 CALM      30.00F
6HR MIN TEMP:  72; 6HR MAX TEMP:  85;


$$

LAZ014-016-210700-
NORTHEAST LOUISIANA

CITY           SKY/WX    TMP DP  RH WIND       PRES   REMARKS
MONROE         PTCLDY    73  70  90 CALM      30.01F
6HR MIN TEMP:  73; 6HR MAX TEMP:  82;

TALLULAH       CLEAR     68  65  90 CALM      30.01S
6HR MIN TEMP:  67; 6HR MAX TEMP:  82;


$$




USA.gov is the U.S. government's official web portal to all federal, state and local government web resources and services.